Tracking 30922 objects as of 2-Jul-2025
HD Live streaming from Space Station
objects crossing your sky now

CZ-4 DEB

Track CZ-4 DEB now!
10-day predictions


NORAD ID: 31131
Int'l Code: 2003-049D
Perigee: 686.5 km
Apogee: 861.3 km
Inclination: 98.9 °
Period: 100.2 minutes
Semi major axis: 7144 km
RCS: 0.0196 m2 (small)
Launch date: October 21, 2003
Source: People's Republic of China (PRC)
Launch site: Taiyaun Space Center, China (TSC)

Note: This is SATELLITE DEBRIS
Your satellite tracking list
Your tracking list is empty




NASA's NSSDC Master Catalog

Two Line Element Set (TLE):
1 31131U 03049D   25182.88323212  .00001397  00000-0  44308-3 0  9994
2 31131  98.8706 200.5416 0122350  31.8893  87.3212 14.37506603949350
Source of the keplerian elements: AFSPC